GFSSW_850_thetae_105.txt.gz
Theta_e
303 303 304 305 305 305 305 306 306 306 309 309 310 308 306 304 304 304 305 307 305 306 306 307 313 317 316 313 314 316 314 316 318 321 321 323 320 323 323 324 328 330 345 345 347
302 302 302 302 303 303 304 305 307 309 308 309 310 312 308 304 303 303 311 311 306 304 308 310 312 316 312 312 314 312 316 320 319 320 319 321 321 322 321 323 323 330 329 338 346
305 304 303 303 303 304 305 307 307 309 311 309 309 311 311 304 303 316 322 317 307 304 308 310 311 314 310 311 312 312 320 321 321 321 322 323 323 324 322 321 323 322 326 326 343
307 305 306 307 309 309 310 310 310 310 311 311 309 310 311 306 308 314 316 316 311 304 308 309 310 311 308 308 311 312 313 318 323 326 324 319 321 327 330 326 324 323 324 323 325
308 310 310 311 311 311 311 311 311 312 312 312 309 309 310 307 307 314 318 313 312 305 307 308 310 311 307 307 311 311 313 315 316 320 320 324 324 328 326 327 321 320 320 321 322
310 311 311 312 312 312 312 311 312 312 312 310 309 309 310 309 309 317 312 310 310 306 307 310 310 312 312 310 309 312 313 314 316 316 317 321 318 319 326 326 324 320 320 319 320
310 311 312 312 313 311 311 311 312 313 312 308 308 308 310 313 311 315 312 310 307 307 309 310 311 312 313 312 315 313 312 313 313 314 315 317 316 317 321 322 320 320 320 319 319
314 314 313 313 313 312 310 312 312 313 311 307 306 309 312 312 313 314 314 310 307 309 309 311 311 313 314 316 313 310 310 310 312 313 314 316 316 317 318 318 318 320 320 320 319
310 310 310 310 311 311 311 312 312 312 310 309 309 311 314 316 313 313 314 312 310 310 310 311 308 310 314 312 311 310 311 311 312 313 315 315 315 316 319 318 319 319 319 319 319
309 309 309 309 310 310 311 312 312 312 314 311 314 315 317 318 318 315 314 315 311 310 309 309 312 311 309 310 312 312 314 313 314 315 314 314 314 315 317 317 317 318 318 318 319
308 309 309 310 310 310 313 311 315 319 316 316 316 316 318 320 317 315 313 315 315 313 312 315 314 313 312 312 314 314 314 315 316 316 317 315 314 315 316 315 315 317 318 318 318
308 309 310 310 310 314 316 313 315 316 314 317 317 318 318 318 319 316 314 314 314 311 313 313 314 313 314 314 315 315 315 315 315 315 314 314 315 314 314 313 316 317 318 319 319
308 308 309 309 312 317 317 317 316 316 314 316 317 318 318 319 319 318 313 314 314 313 313 312 314 315 315 315 316 315 316 315 316 316 315 316 315 315 315 316 316 317 319 319 319
307 308 308 309 315 318 317 318 317 317 315 318 320 320 320 319 318 318 318 317 315 313 312 313 313 315 316 316 315 315 315 316 316 315 315 314 314 313 314 315 317 318 319 319 319
306 308 309 308 311 313 317 317 316 316 325 323 319 319 319 318 317 317 317 315 316 315 312 314 316 316 316 316 315 315 316 315 316 315 313 314 313 313 315 317 316 314 319 321 321
305 306 308 309 312 317 317 316 317 321 327 325 318 317 316 317 317 318 317 317 317 315 315 314 316 316 315 316 316 315 314 311 310 310 313 313 313 313 315 316 315 317 319 321 322
304 305 307 308 313 317 317 316 318 323 324 323 318 316 316 317 317 317 317 316 316 316 315 316 316 316 317 318 316 312 311 312 313 313 314 313 314 313 316 320 318 318 317 319 320
303 304 306 310 314 315 317 315 322 325 327 325 319 317 317 317 317 317 317 316 316 316 315 316 316 318 319 319 320 318 312 312 315 314 314 317 318 319 320 318 316 317 317 319 320
303 305 307 313 317 317 318 320 322 324 323 321 319 318 317 322 321 318 317 317 316 314 316 316 317 319 320 320 319 320 319 315 315 316 317 316 318 317 319 317 317 317 317 317 317
305 307 309 317 317 317 316 320 322 324 320 320 320 321 324 321 323 322 318 320 318 315 313 315 317 319 321 320 319 320 319 320 314 321 321 318 320 317 321 319 319 317 318 319 317
306 309 318 319 317 318 318 318 321 321 320 321 321 320 319 320 322 323 324 322 320 318 314 316 316 318 318 319 320 318 317 317 316 315 317 319 318 317 321 319 317 313 315 316 317
308 308 318 318 316 314 316 318 319 323 323 320 319 318 318 318 319 319 321 322 319 318 319 316 315 318 319 315 316 316 319 318 317 321 313 311 315 317 315 313 313 312 314 314 314
308 309 315 318 318 317 317 320 320 323 323 319 319 319 317 317 317 318 318 316 316 315 318 315 316 318 316 316 315 319 319 319 319 321 325 325 324 316 314 312 312 311 312 313 313
308 313 315 317 315 315 317 319 321 321 320 319 317 316 315 316 312 317 317 315 316 317 317 314 314 316 317 317 315 318 317 318 317 323 323 323 322 319 317 312 311 311 312 312 310
309 313 312 314 315 314 315 316 319 320 318 317 317 317 316 315 313 314 313 313 313 313 314 310 314 316 316 316 316 316 316 315 317 318 320 317 319 317 314 312 311 311 311 310 310
310 311 311 311 312 314 315 317 318 317 316 316 318 315 313 313 313 313 312 312 314 311 312 309 313 314 314 314 312 313 312 313 313 313 317 317 316 312 312 311 310 310 309 308 308
309 310 311 311 311 312 312 312 316 315 313 313 313 312 312 311 311 311 311 311 310 310 310 310 309 309 312 311 311 311 310 311 314 314 314 314 312 310 310 309 309 309 308 307 307

GFSSW_850_thetae_111.txt.gz
Theta_e
313 313 312 309 308 307 307 308 308 309 309 309 308 310 310 309 310 312 310 307 306 305 305 305 304 308 315 314 313 315 320 322 322 322 324 323 328 323 322 326 328 326 330 342 349
310 310 310 310 310 310 311 311 311 312 312 312 311 310 311 310 309 312 310 312 310 306 305 305 305 308 315 315 313 315 318 321 321 322 323 324 328 326 326 327 328 329 327 344 348
314 309 310 311 311 311 312 312 312 312 311 311 312 312 311 311 309 309 321 319 315 313 305 304 307 310 315 311 314 314 315 318 319 320 323 324 327 329 328 329 327 328 326 333 350
313 314 312 311 311 311 312 312 312 311 310 311 311 312 311 310 313 315 309 309 313 316 305 307 309 309 315 315 312 314 314 315 317 321 324 325 325 330 330 328 327 326 322 323 333
310 311 312 312 313 313 312 312 312 312 310 311 311 311 311 309 310 311 311 311 315 316 308 306 309 309 312 314 314 314 315 314 316 319 323 325 326 328 332 330 329 326 324 323 323
308 308 307 307 307 307 307 308 309 310 310 311 311 311 309 310 310 311 312 315 314 312 311 305 309 310 310 312 313 314 314 315 315 319 323 325 327 327 330 330 330 326 324 324 324
307 307 307 306 307 308 308 308 309 310 311 311 311 311 308 311 311 312 311 313 309 312 306 305 310 310 312 313 311 314 314 314 316 316 320 325 327 327 327 329 330 326 325 324 325
306 306 306 306 307 308 309 309 310 311 312 312 311 310 309 310 311 311 312 313 308 314 305 306 309 311 313 312 312 314 313 315 315 316 319 323 324 327 326 328 328 323 321 322 325
305 305 305 306 307 308 309 309 310 312 311 311 310 309 310 312 312 312 313 311 308 307 305 307 308 310 311 315 315 313 314 314 315 316 318 323 322 322 322 324 326 326 324 324 327
303 304 305 305 307 308 308 309 312 311 312 312 310 310 312 315 315 313 314 308 305 308 310 309 309 311 312 314 317 316 314 314 314 315 318 318 318 319 319 320 321 327 326 322 323
301 302 304 305 306 307 308 312 313 313 311 313 313 313 316 318 318 317 313 308 308 309 311 309 311 311 313 314 315 317 315 316 316 315 316 317 318 319 318 322 323 322 321 322 326
302 301 303 304 305 306 309 313 312 314 315 316 315 314 316 316 317 314 312 312 310 310 310 310 311 312 312 314 315 316 316 317 317 316 316 317 318 319 319 319 319 320 320 320 324
301 301 301 301 304 307 314 316 314 314 315 316 315 316 316 317 318 314 312 313 314 312 311 314 314 313 314 316 315 316 317 317 317 317 317 318 317 318 317 317 316 316 318 318 318
301 301 301 302 305 309 308 313 315 314 319 317 317 316 316 317 319 318 313 314 313 316 315 316 316 316 316 317 317 318 317 317 317 318 319 317 320 320 319 317 317 317 315 314 314
301 302 302 305 304 304 307 315 314 314 322 318 319 318 317 319 318 317 315 314 316 314 315 315 316 316 316 317 317 318 317 317 318 319 318 318 319 320 318 319 319 319 320 318 318
301 301 303 303 304 304 308 313 314 319 321 323 318 319 319 318 317 314 313 315 316 314 314 315 315 317 318 317 317 316 316 316 316 318 320 320 319 319 319 319 321 321 318 317 318
301 301 301 304 304 305 312 311 319 321 317 325 320 319 320 320 318 316 315 316 319 319 317 316 316 317 316 318 318 316 318 319 319 319 319 316 318 319 318 320 320 320 318 317 317
301 301 303 304 306 305 313 315 320 319 318 318 319 318 320 319 319 318 315 315 318 318 318 319 316 317 319 320 320 320 318 320 320 320 319 318 319 322 320 317 316 317 317 316 315
301 303 304 308 313 307 310 320 318 318 318 322 319 320 319 318 319 318 317 317 318 318 318 319 317 319 320 320 320 320 321 317 320 319 320 320 321 322 320 319 318 317 316 315 315
304 303 306 314 315 307 314 319 318 317 321 321 323 321 323 318 319 319 318 318 317 317 318 319 321 320 321 320 320 321 318 322 322 323 321 321 323 324 322 321 319 318 316 315 314
305 305 310 315 310 312 319 318 318 318 318 319 322 323 322 322 321 319 319 321 319 317 317 317 320 321 320 320 322 321 323 322 321 322 323 321 321 320 322 320 319 317 315 314 313
304 307 309 313 316 317 319 317 317 317 316 319 321 320 322 321 324 324 322 322 319 318 320 317 320 322 320 318 317 319 321 323 328 326 323 324 323 317 318 317 317 316 314 312 312
305 306 310 314 316 317 316 316 316 318 318 319 321 320 320 320 321 321 320 316 319 321 321 322 321 323 322 320 319 321 321 321 321 323 325 324 323 316 316 316 315 315 314 312 311
306 308 311 312 313 314 315 316 317 316 317 319 319 318 318 317 316 319 318 316 317 319 320 320 320 321 324 320 320 322 322 322 322 325 322 322 322 319 317 317 315 314 313 312 311
306 308 311 312 311 313 313 313 316 314 315 318 319 319 319 318 318 317 317 317 315 315 313 318 321 319 318 318 317 319 320 320 321 320 321 320 322 321 320 318 315 313 312 312 311
306 309 309 308 310 311 313 314 314 316 315 316 319 317 317 316 316 315 315 316 318 315 315 314 319 317 316 314 314 316 316 317 317 317 318 318 318 316 314 313 312 312 311 311 309
305 306 307 308 309 310 312 312 312 311 313 312 314 315 314 313 311 309 311 312 314 316 316 316 317 316 315 313 313 313 313 314 314 314 315 316 315 315 314 313 312 311 310 309 307

GFSSW_850_thetae_114.txt.gz
Theta_e
312 311 311 312 311 312 312 312 312 312 312 312 313 312 312 310 312 312 312 312 309 306 306 305 307 310 315 315 315 316 321 323 324 326 328 327 328 330 327 330 334 335 334 346 356
310 313 311 311 311 311 312 312 312 312 312 312 312 312 313 312 311 313 311 311 310 306 306 310 309 311 314 315 315 317 318 321 322 324 326 327 327 332 330 330 334 337 329 352 356
309 311 314 313 313 312 312 312 312 312 312 311 310 311 312 313 313 314 318 315 314 312 310 309 310 310 313 315 315 316 317 318 319 322 323 325 326 328 332 333 331 330 327 330 353
308 308 309 309 308 309 311 312 312 312 312 311 310 310 312 313 318 313 319 311 309 315 311 310 310 310 314 316 315 316 316 316 317 320 321 324 325 328 331 331 330 331 328 327 329
307 308 307 307 307 307 307 307 307 308 309 310 310 310 312 314 315 313 310 310 311 315 313 312 311 311 314 316 316 317 316 316 316 317 320 322 325 327 329 332 329 330 329 329 328
305 306 306 306 306 306 307 308 308 308 309 309 310 310 312 315 315 310 312 310 314 316 313 312 312 311 312 314 316 317 316 316 316 316 316 322 326 325 327 330 331 331 330 331 330
304 304 305 306 305 306 307 308 309 309 310 310 310 310 312 315 314 315 316 318 318 316 315 311 311 311 311 313 313 315 316 317 317 317 318 317 324 327 327 328 330 331 331 329 330
302 302 304 305 305 306 307 308 308 309 311 312 311 312 312 315 312 313 313 316 317 316 313 310 310 311 313 314 315 315 315 316 316 317 317 319 323 325 326 327 330 331 331 331 330
302 301 301 303 304 305 306 307 308 311 312 311 311 311 315 313 311 312 313 317 316 314 310 309 310 311 313 316 316 316 315 316 316 317 317 319 320 321 324 326 327 329 331 331 329
300 301 301 301 303 304 305 306 311 311 312 312 312 311 314 316 316 316 314 315 312 311 309 309 311 314 314 315 317 317 316 315 316 317 317 318 320 319 322 324 326 328 328 330 330
300 300 301 301 301 302 304 307 313 314 311 316 317 317 317 317 317 316 315 312 310 310 312 311 314 315 315 315 317 318 318 317 317 317 317 317 318 320 320 322 324 327 329 328 331
300 300 301 301 301 301 303 310 316 315 317 317 317 316 316 318 319 317 313 312 311 312 314 314 315 315 315 315 317 318 319 318 318 318 319 317 318 319 321 321 322 325 327 328 330
300 300 300 301 301 304 312 313 314 314 318 318 318 318 317 316 319 317 313 314 313 312 314 315 315 315 315 315 317 318 319 319 319 320 318 318 319 320 321 321 322 324 323 328 329
300 300 301 301 307 309 307 309 314 314 321 319 319 319 318 318 320 319 314 315 316 313 313 313 315 315 314 316 317 319 318 319 319 319 320 320 322 322 322 322 323 322 321 324 328
301 300 301 303 302 305 308 312 314 315 319 320 320 319 319 319 319 321 316 316 318 317 314 314 317 318 315 317 319 319 319 319 319 320 320 321 321 323 322 322 322 322 320 320 324
301 300 301 303 306 304 308 308 314 321 321 319 322 321 320 319 320 321 317 316 316 318 318 318 317 318 319 319 319 319 319 319 319 320 320 320 321 322 323 323 323 324 323 322 320
301 301 301 303 306 308 309 310 319 319 316 317 321 322 322 320 320 320 320 319 318 319 319 317 317 318 318 319 319 319 320 321 320 320 320 320 321 320 325 325 325 325 323 322 321
301 301 304 306 309 308 312 315 316 314 317 319 320 321 322 321 321 320 320 319 318 319 319 318 317 317 318 319 321 321 322 321 320 320 319 321 321 321 325 323 323 322 321 321 320
301 303 308 309 313 309 311 317 314 315 315 317 320 322 323 322 321 322 321 320 318 318 320 320 318 317 317 319 320 322 322 322 322 322 322 321 322 325 324 324 323 322 322 321 320
303 307 308 311 311 310 312 314 313 314 316 320 320 320 323 321 321 323 322 321 321 319 320 320 320 318 317 319 320 322 321 322 322 323 321 322 324 322 325 325 324 324 322 320 319
306 307 311 312 310 312 315 314 314 312 316 319 319 320 321 321 321 322 322 321 319 319 320 320 322 323 322 321 320 321 322 323 324 323 324 322 325 326 325 325 324 323 321 320 319
305 309 311 310 314 315 318 316 316 318 317 318 318 319 321 315 318 323 322 322 320 319 319 320 321 326 322 322 321 322 323 322 329 325 324 325 325 324 325 324 323 321 320 319 318
304 307 309 311 317 316 316 315 316 315 317 319 319 319 319 318 318 320 323 319 320 320 321 322 324 326 326 323 322 322 322 323 325 326 326 325 324 323 322 323 321 320 319 318 317
305 309 310 313 313 313 315 315 315 314 317 318 318 319 320 318 318 316 323 319 320 322 322 321 323 324 326 325 324 324 324 322 323 325 324 324 324 323 322 322 321 319 319 318 317
306 308 310 312 312 311 313 314 315 316 316 317 319 319 320 318 318 313 319 319 320 319 323 324 326 325 323 320 322 323 323 323 322 321 322 321 322 324 323 322 321 319 318 317 316
306 308 307 308 309 311 312 314 314 314 313 317 318 319 320 320 315 316 318 320 322 320 320 322 325 324 323 320 321 321 321 321 321 321 321 320 320 320 320 320 318 317 316 316 315
304 304 305 308 309 311 311 312 312 313 310 313 315 314 317 315 315 315 313 316 319 322 322 323 323 324 323 318 317 316 316 317 318 318 319 320 319 319 318 317 317 316 315 314 312

GFSSW_850_thetae_117.txt.gz
Theta_e
309 310 313 311 311 311 311 312 312 312 312 312 312 312 313 314 314 313 316 315 317 309 306 311 312 312 312 316 316 317 320 320 322 324 325 328 332 330 331 332 334 339 337 347 352
308 309 310 313 314 313 313 312 312 312 312 312 312 312 310 312 314 317 317 315 312 311 307 311 312 312 313 316 317 319 319 320 322 323 325 326 329 330 332 331 334 338 333 351 357
308 308 308 308 307 307 307 308 310 312 312 312 312 312 310 311 317 321 317 314 314 311 310 313 313 312 315 316 317 318 319 320 320 321 323 324 327 328 329 334 334 337 332 345 352
305 306 307 307 306 306 306 306 306 307 307 308 309 310 310 312 324 320 318 315 313 314 313 314 312 313 316 317 317 318 318 318 318 319 320 323 325 327 328 332 333 334 331 333 341
303 304 304 306 306 306 306 306 307 308 308 308 308 309 310 317 318 320 315 315 310 313 317 315 314 314 315 317 317 319 319 318 317 318 319 321 324 325 327 327 333 333 331 332 332
302 302 303 303 305 305 305 306 307 307 309 309 310 310 312 317 317 320 318 316 316 317 318 317 317 315 315 316 318 318 318 318 318 318 318 320 322 323 324 326 331 332 333 333 333
301 301 301 301 302 304 305 305 306 307 308 309 309 311 313 317 318 317 317 319 318 319 319 317 316 316 315 316 315 316 318 319 319 318 319 318 319 320 323 326 328 332 332 332 334
300 300 300 301 301 301 303 304 305 306 307 311 314 313 314 317 317 318 318 319 319 320 319 317 314 315 315 315 316 317 317 318 319 319 318 318 319 320 319 325 326 328 331 333 332
300 300 300 300 301 301 301 302 304 306 311 312 312 313 319 317 317 318 318 317 318 319 318 315 313 314 316 316 318 318 317 317 317 319 318 319 318 320 320 321 325 327 329 331 333
301 300 300 300 301 301 301 301 306 311 313 312 314 315 316 319 318 316 316 315 318 318 314 313 313 316 317 317 317 319 318 317 318 319 318 318 318 319 319 321 324 326 327 329 333
301 301 300 301 301 301 301 307 314 314 313 317 318 318 320 319 318 317 315 317 316 315 315 313 316 316 316 317 318 318 319 320 319 319 318 318 318 319 319 320 321 324 327 328 330
301 301 301 301 301 301 302 310 313 317 317 318 318 319 319 320 320 318 316 317 315 316 315 315 316 317 317 317 317 318 319 321 320 320 320 319 319 319 319 320 320 323 325 325 328
301 302 301 302 301 309 312 313 313 314 319 318 318 320 320 319 320 320 317 316 316 316 315 316 316 317 317 318 318 318 319 320 320 320 321 320 320 320 319 319 319 321 321 321 324
301 301 301 301 308 312 308 311 312 316 321 317 320 319 319 320 321 320 317 317 317 316 315 316 318 317 317 318 318 318 319 319 320 321 320 321 320 320 320 321 321 321 321 323 327
301 301 301 301 302 308 309 311 314 318 317 317 321 321 320 321 322 320 319 316 318 317 316 315 316 317 317 317 317 318 320 320 320 320 321 322 321 323 322 321 322 323 324 325 324
300 300 301 304 308 309 310 310 312 319 317 317 321 323 323 322 322 321 320 317 317 319 318 316 316 317 318 317 318 319 320 321 321 320 321 321 323 324 324 325 324 324 324 323 323
300 301 301 304 308 311 311 311 315 315 314 316 318 323 323 323 323 323 323 321 320 320 321 317 317 319 319 319 318 320 321 321 321 321 320 321 323 326 327 326 326 326 326 325 324
300 301 305 309 311 310 312 314 315 312 314 316 317 322 323 324 323 322 324 323 320 320 321 320 320 319 319 319 321 321 321 321 323 321 320 320 322 326 325 323 326 326 326 325 325
300 306 308 310 311 312 313 317 314 314 314 315 316 317 319 324 323 322 324 323 321 320 321 322 321 319 319 319 321 322 321 322 322 325 325 323 325 326 326 327 327 326 326 326 325
303 307 309 311 313 313 315 315 314 314 315 315 316 320 322 321 321 318 322 323 322 321 321 322 323 319 319 319 320 321 323 323 324 329 330 326 325 325 327 327 327 328 326 325 324
305 308 314 314 312 312 316 313 314 314 314 315 316 320 322 323 323 321 320 323 323 321 321 322 323 322 319 319 319 320 323 325 326 325 327 328 328 327 327 327 328 327 325 324 322
304 309 312 312 313 314 316 315 316 318 317 319 318 319 322 321 320 318 323 322 318 322 321 322 324 325 321 319 319 321 323 325 333 329 327 329 330 325 326 327 327 326 324 323 321
305 306 308 309 314 315 315 316 315 318 317 317 318 320 319 321 321 320 318 317 321 324 323 325 324 329 326 326 324 323 323 324 327 329 326 329 330 326 328 327 325 324 322 321 321
305 308 307 312 313 314 315 313 316 314 317 317 318 321 321 320 318 321 319 318 321 324 322 324 324 327 329 325 326 324 323 323 325 326 328 327 326 326 325 325 324 323 322 321 321
304 308 308 313 311 311 313 313 314 317 315 315 319 320 320 321 320 319 315 317 322 323 322 324 326 326 326 325 325 325 323 323 322 321 322 322 326 325 325 323 323 322 322 321 320
305 306 304 307 308 311 313 315 314 314 315 316 318 319 320 316 320 317 314 317 324 324 324 325 326 325 325 323 324 325 324 325 324 323 323 321 325 325 323 323 323 322 321 320 319
304 304 304 305 309 309 312 313 313 314 313 312 315 317 316 314 315 317 314 315 320 324 326 328 326 326 325 324 322 323 324 323 322 321 321 321 321 322 322 322 321 319 318 318 317

GFSSW_850_thetae_123.txt.gz
Theta_e
304 304 305 306 306 307 306 306 306 306 306 307 308 309 310 311 311 311 311 315 319 318 314 310 314 312 309 310 313 315 313 314 315 317 318 321 320 323 325 330 332 333 338 349 351
303 303 303 303 303 304 305 305 306 306 305 305 306 306 306 306 307 309 309 310 312 320 314 313 311 314 312 312 312 312 313 314 316 316 317 318 319 320 322 332 331 333 342 351 351
304 303 302 302 302 302 302 303 305 305 305 305 306 306 307 307 308 309 317 320 316 318 317 313 311 312 314 314 313 312 313 315 316 317 318 318 318 320 320 321 330 331 344 352 352
304 303 302 302 301 301 301 301 302 304 305 305 306 307 308 309 312 320 317 315 318 319 319 315 314 313 310 311 314 311 313 316 317 317 318 318 319 319 320 320 323 325 339 346 349
302 302 301 301 300 300 300 301 301 301 303 304 305 309 310 313 313 313 319 317 316 319 319 317 314 314 311 312 313 312 313 316 317 318 317 318 318 318 318 320 322 324 335 347 344
302 302 302 301 301 301 301 301 301 301 301 302 304 309 309 310 309 313 313 317 318 315 317 316 314 313 315 313 311 314 314 315 317 317 318 318 317 318 318 319 320 324 334 339 343
303 303 303 303 302 302 301 301 301 301 301 301 303 311 309 309 308 316 317 317 317 319 315 315 314 315 316 312 315 315 313 313 315 317 316 318 316 317 318 318 320 322 325 331 340
303 303 303 303 302 302 302 302 302 302 301 302 307 310 312 306 307 311 316 318 319 319 318 318 318 319 319 318 317 315 312 312 313 316 317 317 316 317 319 318 318 320 323 327 334
302 302 302 302 302 302 302 303 304 303 303 307 310 311 313 311 316 315 315 319 320 321 318 319 319 319 318 316 315 314 313 312 313 314 316 316 316 316 319 319 318 318 320 321 327
301 301 301 301 302 302 302 303 305 306 309 312 312 315 314 313 315 319 317 319 319 320 321 320 319 318 316 314 315 314 313 313 314 314 314 314 316 316 318 319 318 319 319 318 319
301 301 301 301 301 301 301 302 308 311 312 315 315 316 315 315 319 319 319 319 319 320 320 320 319 319 318 316 315 316 315 314 315 316 315 314 314 315 316 318 317 318 319 319 320
302 302 301 302 302 302 301 304 309 311 313 313 314 316 316 314 317 319 319 319 320 321 320 320 320 319 318 318 315 315 315 315 316 317 315 315 315 316 315 316 317 318 318 319 319
301 301 301 301 303 304 312 311 308 310 315 313 313 314 315 316 318 318 320 319 321 321 320 320 320 320 317 316 316 315 315 316 316 318 320 319 317 318 318 318 319 319 319 319 319
298 299 299 301 303 308 306 305 310 312 314 313 313 315 314 315 317 318 318 320 321 321 319 320 319 319 316 315 315 315 316 317 317 317 317 319 317 318 319 318 318 318 319 319 319
298 298 298 300 301 302 303 305 310 312 315 313 316 317 316 317 318 318 318 320 321 321 319 319 320 320 315 315 315 316 317 316 317 316 319 317 316 316 319 322 322 324 325 323 319
298 298 299 299 301 299 302 307 307 313 314 312 315 315 317 315 317 319 318 320 319 319 319 320 319 317 316 316 316 316 316 316 315 314 316 317 317 316 317 320 325 326 324 325 324
299 299 298 300 301 302 306 307 312 315 311 312 313 313 318 321 320 321 322 320 319 319 320 320 319 317 317 316 316 315 314 314 316 316 317 317 318 317 324 326 327 326 324 325 325
300 299 299 303 306 306 309 311 314 313 312 311 312 314 314 320 322 319 319 325 320 319 320 321 320 317 318 316 315 315 314 314 317 319 319 320 319 318 326 326 326 325 325 327 326
300 300 303 308 311 309 309 312 311 311 311 312 313 314 315 315 321 322 322 322 322 321 321 320 319 319 318 317 316 316 316 315 316 323 322 321 327 326 325 324 323 325 327 328 330
301 303 306 306 308 308 310 313 312 312 312 311 313 313 315 316 320 320 322 322 324 321 321 323 325 321 318 316 316 316 315 316 315 323 323 322 326 330 325 323 322 324 326 327 328
302 303 305 307 306 309 309 310 311 311 312 313 314 317 317 320 320 319 321 321 324 323 322 324 323 325 323 322 316 315 315 316 319 323 321 324 332 327 330 329 324 325 325 325 325
302 304 305 306 306 307 309 307 309 312 312 312 314 316 315 317 320 321 320 322 321 322 323 323 323 324 323 322 322 317 317 320 323 327 328 324 327 324 325 324 324 326 323 323 323
302 304 307 306 305 306 307 308 310 310 310 314 314 315 315 318 321 321 321 321 320 320 323 322 324 325 325 323 322 317 318 320 324 325 328 328 327 325 325 323 323 325 325 322 320
303 305 304 305 304 307 308 310 310 307 309 313 315 316 316 317 319 322 321 320 319 318 319 322 323 325 324 325 322 319 319 322 322 325 327 328 328 327 324 326 324 324 326 321 320
304 305 304 305 305 305 308 309 309 311 310 312 314 314 315 316 318 319 321 320 319 319 320 322 326 325 326 326 325 322 319 325 325 324 325 326 327 325 322 323 323 323 323 320 319
302 303 303 303 303 306 308 308 311 310 312 312 311 312 316 317 319 320 320 320 320 319 319 323 326 322 326 324 325 326 324 326 326 325 325 322 326 322 322 322 323 323 319 318 317
302 302 304 303 304 306 307 308 309 309 310 311 311 313 312 313 313 313 316 317 318 319 322 322 326 323 324 324 324 327 326 326 325 326 324 328 325 323 323 320 319 320 319 315 314